User: anonymous
Location: NJAA Observatory
(40.6819°N, 74.8979°W)
Time: 00:16:05
(UTC-04:00)
Language:

Iridium 84 - Orbit

View from above orbital plane
View from above orbital plane
View from above satellite
View from above satellite

Ground track
Ground track

The orbit data is extracted from the following two-line orbital elements,

1 25530U 98066D   14242.45477433  .00000108  00000-0  31406-4 0  7573
2 25530 086.3927 057.1103 0002063 107.5567 252.5854 14.34217883830554
Epoch (UTC): 30 August 2014 10:54:52
Eccentricity: 0.0002063
inclination: 86.3927°
perigee height: 776 km
apogee height: 779 km
right ascension of ascending node: 57.1103°
argument of perigee: 107.5567°
revolutions per day: 14.34217883
mean anomaly at epoch: 252.5854°
orbit number at epoch: 83055

The dashed part of the orbit path shows where the satellite is in the earth's shadow,  

DLR